User: anonymous   Login
Location: Unspecified
(0.0000°N, 0.0000°E)
Time: 23:17:36
(UTC+00:00)
Language:

Intercosmos 24 - Orbit

View from above orbital plane
View from above orbital plane
View from above satellite
View from above satellite

Ground track
Ground track

The orbit data is extracted from the following two-line orbital elements,

1 20261U 89080A   18015.79956277 +.00000017 +00000-0 +30401-5 0  9994
2 20261 082.5945 232.2188 1203681 326.4880 026.5331 12.55954473293069
Epoch (UTC): 15 January 2018 19:11:22
Eccentricity: 0.1203681
inclination: 82.5945°
perigee height: 498 km
apogee height: 2380 km
right ascension of ascending node: 232.2188°
argument of perigee: 326.4880°
revolutions per day: 12.55954473
mean anomaly at epoch: 26.5331°
orbit number at epoch: 29306

The dashed part of the orbit path shows where the satellite is in the earth's shadow,  

DLR